Regional Weather Roundup
Issued by NWS

Home | Current Version | Previous Version | Graphics & Text | Print | Product List | Glossary On
Versions: 1 2 3 4 5 6 7 8 9 10 11 12 13 14 15 16 17 18 19 20 21 22 23 24 25 26 27 28 29 30 31 32 33 34 35 36 37 38 39 40 41 42 43 44 45 46 47 48 49 50
000
ASUS43 KFSD 260502
RWRSD

WEATHER ROUNDUP FOR SOUTH DAKOTA
NATIONAL WEATHER SERVICE SIOUX FALLS SD
1100 PM CST THU DEC 25 2014

NOTE: "FAIR" INDICATES FEW OR NO CLOUDS BELOW 12,000 FEET WITH NO
SIGNIFICANT WEATHER AND/OR OBSTRUCTIONS TO VISIBILITY.


SDZ001>005-009-010-012>017-260600-
NORTHWEST AND NORTH CENTRAL SOUTH DAKOTA

CITY           SKY/WX    TMP DP  RH WIND       PRES   REMARKS
BUFFALO          N/A     21  16  81 NW10      29.93R WCI  10
FAITH            N/A     23  17  78 N16       29.98R WCI  10
MOBRIDGE       CLOUDY    27  21  78 N10       29.96R WCI  17
$$

SDZ012>016-024>037-041>051-057-063-072>074-260600-
SOUTHWEST AND SOUTH CENTRAL SOUTH DAKOTA

CITY           SKY/WX    TMP DP  RH WIND       PRES   REMARKS
RAPID CTY ARPT CLOUDY    21  17  84 N16       29.97S WCI   7
PIERRE         CLOUDY    26  22  84 NW12      29.97R WCI  16
CUSTER         MOCLDY    15  10  80 VRB3      29.83R
ELLSWORTH AFB  CLOUDY    21  18  86 N16       29.97  WCI   7
PHILIP         CLOUDY    25  20  81 NW8       29.99R WCI  16
PINE RIDGE     CLOUDY    23  19  85 N13G23    29.93R WCI  11
WINNER         LGT SNOW  26  23  88 N16       29.94R FOG     WCI  14
$$

SDZ004>011-016>023-039-040-260600-
NORTHEAST SOUTH DAKOTA

CITY           SKY/WX    TMP DP  RH WIND       PRES   REMARKS
ABERDEEN       CLOUDY    28  23  81 N9        29.96S WCI  19
WATERTOWN      LGT SNOW  26  23  88 N10       29.89S FOG     WCI  16
SISSETON         N/A     27  23  85 NE16      29.95R WCI  15
$$

SDZ017-020-022-023-036>040-048>070-260600-
SOUTHEAST SOUTH DAKOTA

CITY           SKY/WX    TMP DP  RH WIND       PRES   REMARKS
SIOUX FALLS    CLOUDY    29  26  89 N14       29.82S WCI  18
HURON          LGT SNOW  26  24  92 N15       29.93S FOG     WCI  14
MITCHELL       CLOUDY    28  25  88 N17       29.90R WCI  16
YANKTON        CLOUDY    30  27  86 N16       29.84R WCI  19
$$

ABBREVIATIONS USED IN REMARKS
   TC - TEMPERATURE IN CELSIUS
  WCI - WIND CHILL INDEX
   HX - HEAT INDEX
  VSB - VISIBILITY




USA.gov is the U.S. government's official web portal to all federal, state and local government web resources and services.